Home   Weather   Eberswalde   Past weeks
Flag for Germany

Past Weather in Eberswalde, Brandenburg, Germany — Yesterday and Last 2 Weeks

Now
50 °F

Passing clouds.


Feels Like: 46 °F
Forecast: 59 / 45 °F
Wind: 10 mph from West

Location: Berlin-Tegel

Current Time: Sep 18, 2019 at 9:25:02 am

Latest Report: Sep 18, 2019 at 8:50 am


Visibility: N/A

Pressure: 30.12 "Hg

Humidity: 82%

Dew Point: 45 °F

Location of EberswaldeLocation

Past Weather in Eberswalde — Graph

°F

Eberswalde Temperature Yesterday

Maximum temperature yesterday: 59 °F (at 11:20 am)
Minimum temperature yesterday: 50 °F (at 6:50 pm)
Average temperature yesterday: 53 °F

High & Low Weather Summary for the Past Weeks

 TemperatureHumidityPressure
High81 °F (Sep 4, 4:20 pm)100% (Sep 9, 6:50 am)30.57 "Hg (Sep 9, 6:50 am)
Low45 °F (Sep 14, 4:50 am)21% (Sep 15, 3:50 pm)29.80 "Hg (Sep 9, 1:20 pm)
Average60 °F68%30.11 "Hg
* Reported Sep 3 7:20 am — Sep 18 7:50 am, Eberswalde. Weather by CustomWeather, © 2019

Note: Actual official high and low records may vary slightly from our data, if they occured in-between our weather recording intervals... More about our weather records

Advertising

Eberswalde Weather History for the Previous 24 Hours

Scroll right to see more
 ConditionsComfort  
Time TempWeatherWind HumidityBarometerVisibility
7:50 am
Wed, Sep 18
46 °FPassing clouds.8 mph87%30.12 "HgN/A
7:20 am45 °FPassing clouds.9 mph93%30.12 "HgN/A
6:50 am46 °FPassing clouds.9 mph87%30.09 "HgN/A
6:20 am46 °FClear.9 mph87%30.09 "Hg10 mi
5:50 am46 °FClear.9 mph87%30.09 "Hg10 mi
5:20 am46 °FPassing clouds.9 mph87%30.09 "HgN/A
4:50 am46 °FPassing clouds.8 mph87%30.07 "HgN/A
4:20 am46 °FPassing clouds.10 mph87%30.07 "HgN/A
3:50 am46 °FPassing clouds.10 mph82%30.07 "HgN/A
3:20 am46 °FPassing clouds.13 mph82%30.07 "HgN/A
2:50 am48 °FPassing clouds.13 mph82%30.04 "HgN/A
2:20 am48 °FClear.13 mph76%30.04 "Hg10 mi
1:50 am48 °FPassing clouds.14 mph76%30.04 "HgN/A
1:20 am48 °FPassing clouds.13 mph76%30.01 "HgN/A
12:50 am50 °FPassing clouds.14 mph71%30.01 "HgN/A
12:20 am50 °FPassing clouds.16 mph71%30.01 "HgN/A
11:50 pm
Tue, Sep 17
50 °FPassing clouds.14 mph76%29.98 "HgN/A
11:20 pm50 °FPassing clouds.15 mph76%29.98 "HgN/A
10:50 pm50 °FPassing clouds.15 mph71%29.95 "HgN/A
10:20 pm50 °FPassing clouds.18 mph71%29.95 "HgN/A
9:50 pm50 °FClear.15 mph76%29.95 "Hg10 mi
9:20 pm50 °FPassing clouds.15 mph71%29.95 "HgN/A
8:50 pm50 °FPassing clouds.13 mph71%29.95 "HgN/A
8:20 pm50 °FPassing clouds.8 mph88%29.92 "HgN/A
7:50 pm50 °FPassing clouds.10 mph88%29.92 "HgN/A
7:20 pm50 °FPassing clouds.8 mph88%29.92 "HgN/A
6:50 pm50 °FSprinkles. Broken clouds.12 mph82%29.92 "HgN/A
6:20 pm54 °FScattered showers. Scattered clouds.16 mph72%29.89 "HgN/A
5:50 pm54 °FPassing clouds.15 mph72%29.89 "HgN/A
5:20 pm54 °FPassing clouds.12 mph82%29.89 "HgN/A
4:50 pm52 °FScattered clouds.10 mph88%29.89 "HgN/A
4:20 pm55 °FScattered showers. Broken clouds.15 mph82%29.89 "HgN/A
3:50 pm54 °FLight rain. Scattered clouds.15 mph88%29.86 "HgN/A
3:20 pm55 °FSprinkles. Broken clouds.18 mph82%29.89 "HgN/A
2:50 pm55 °FBroken clouds.15 mph88%29.89 "HgN/A
2:20 pm54 °FSprinkles. Partly sunny.23 mph94%29.89 "Hg4 mi
1:50 pm54 °FScattered clouds.13 mph94%29.89 "HgN/A
1:20 pm55 °FSprinkles. Broken clouds.12 mph82%29.92 "HgN/A
12:50 pm54 °FSprinkles. Broken clouds.15 mph88%29.92 "HgN/A
12:20 pm59 °FSprinkles. Broken clouds.17 mph63%29.92 "HgN/A
11:50 am59 °FScattered showers. Scattered clouds.21 mph63%29.92 "HgN/A
11:20 am59 °FScattered clouds.21 mph63%29.92 "HgN/A
10:50 am57 °FPassing clouds.18 mph67%29.95 "HgN/A
10:20 am57 °FPassing clouds.17 mph67%29.95 "HgN/A
9:50 am57 °FPassing clouds.15 mph72%29.95 "HgN/A
9:20 am55 °FPassing clouds.15 mph77%29.95 "HgN/A
Weather by CustomWeather, © 2019

See weather overview